Theta_e
361 361 360 360 361 362 363 363 362 362 364 362 361 363 363 366 368 367 366 368 369 369 371 371 372 371 368 370 372 372 370 369 368 367 368 365 363 361 358 360 364 365
361 362 363 361 363 364 365 364 365 364 365 367 365 365 368 368 367 368 367 367 369 368 371 370 370 371 370 369 371 369 368 369 368 366 367 366 365 363 361 362 362 366
360 361 360 359 357 360 358 362 365 364 363 363 365 368 365 366 366 369 368 367 367 365 370 371 370 371 369 370 370 369 366 368 367 366 368 366 365 365 364 361 362 364
361 360 358 357 357 359 359 361 362 364 363 364 363 363 364 362 366 367 368 369 368 369 368 369 368 368 369 370 371 369 368 369 367 369 367 368 367 365 365 365 364 364
360 360 360 359 359 362 362 360 358 360 361 362 362 365 367 367 367 365 367 368 370 368 369 369 369 369 371 371 371 369 368 364 368 370 367 366 368 366 364 365 365 363
362 363 364 361 363 363 360 360 360 359 360 359 362 363 364 365 365 365 365 364 363 363 363 366 367 367 368 369 370 369 366 363 366 369 367 366 365 366 362 364 365 364
359 361 360 361 360 361 361 361 361 362 360 360 364 363 364 363 364 366 367 365 363 365 363 366 370 369 369 371 371 370 370 369 369 369 367 365 367 366 365 365 366 366
357 359 361 362 359 360 360 361 361 362 363 364 362 364 365 362 365 364 365 365 364 365 367 366 369 372 367 368 369 368 368 364 365 369 368 366 366 366 366 365 366 366
357 359 360 360 358 358 357 357 360 361 364 362 359 360 364 363 363 362 366 368 365 366 368 367 369 368 368 368 369 369 368 364 362 365 365 364 363 365 364 365 364 364
359 358 357 357 356 357 357 357 357 359 362 360 360 359 359 364 365 364 366 368 365 366 367 367 368 367 367 369 369 369 369 368 367 367 365 364 363 363 362 364 363 363
359 358 356 356 356 356 356 357 357 358 360 360 359 358 359 361 365 366 366 366 361 362 364 367 366 367 368 366 367 368 368 366 366 368 367 366 366 366 365 366 365 363
360 360 358 357 356 355 356 356 357 358 359 359 359 358 360 358 360 361 361 364 364 363 364 366 368 368 369 368 365 366 367 366 366 367 366 367 367 366 366 366 364 365
359 360 359 357 359 358 357 357 357 357 358 358 359 359 359 357 358 360 362 362 364 364 362 365 367 366 368 370 367 367 367 367 364 365 366 366 366 365 364 364 364 363
359 361 360 359 361 364 362 359 358 358 358 359 360 360 358 357 357 357 360 361 361 362 363 365 366 365 367 368 367 365 364 365 365 364 362 364 364 365 364 362 363 362
358 358 359 361 362 362 362 361 359 360 360 360 361 359 357 358 358 357 357 358 359 360 362 362 359 360 361 363 364 365 364 362 363 363 363 363 364 362 363 364 363 362
357 358 358 358 358 359 360 360 359 359 358 358 359 359 360 361 360 359 357 356 357 359 360 358 358 358 361 352 354 361 363 360 361 363 364 362 363 363 361 361 361 361
351 351 352 354 353 353 354 354 357 357 357 358 357 357 359 361 360 359 358 356 355 356 356 355 355 355 350 338 337 341 357 361 362 363 365 364 362 363 362 360 360 361
346 346 349 350 349 348 348 350 351 352 354 356 356 356 358 356 355 356 358 357 355 355 354 353 353 354 337 334 335 334 343 358 359 360 359 361 361 359 360 360 359 359
346 345 347 349 349 348 346 346 346 348 350 351 353 355 356 357 358 356 355 355 354 355 353 353 353 347 335 332 331 331 331 344 355 358 358 358 359 361 360 360 361 361
347 348 347 347 348 348 347 346 345 346 349 352 353 355 354 356 357 358 358 360 359 358 358 356 355 352 337 331 328 328 329 335 352 354 356 357 359 359 359 360 362 363
334 335 336 338 342 345 346 347 348 349 351 352 353 354 355 356 355 356 358 358 357 355 355 355 355 346 338 333 327 324 325 333 349 352 354 356 358 359 361 359 360 360
329 330 331 332 333 333 333 335 338 339 341 347 351 353 354 356 353 354 354 355 356 355 353 352 354 330 330 330 327 326 327 344 351 355 355 355 356 358 359 361 361 360
329 329 329 330 331 331 331 332 334 335 338 342 344 347 349 350 352 352 353 354 354 353 350 352 353 337 325 324 324 323 334 355 356 355 356 356 356 358 358 358 358 359
331 331 330 330 330 331 332 335 337 336 336 338 340 344 347 348 351 352 352 353 354 355 354 354 352 340 327 320 320 322 332 355 356 355 355 355 355 356 356 357 356 349
330 330 331 330 330 330 332 332 334 337 337 337 339 341 345 348 350 350 350 350 350 352 351 349 346 342 323 319 318 320 340 358 357 357 356 356 356 356 358 358 358 354
329 329 329 329 329 330 331 332 334 335 338 340 338 339 340 346 350 350 349 346 342 344 347 347 342 340 333 316 315 318 324 352 356 354 354 354 355 354 355 357 357 358
Wind_Speed
8 7 7 7 6 6 6 6 6 6 6 5 5 5 5 5 5 5 6 5 5 5 4 4 4 3 2 2 2 2 1 2 1 1 1 1 1 2 2 1 1 1
9 8 7 7 5 5 5 6 6 6 6 6 5 4 4 5 5 6 6 6 5 6 5 4 4 4 4 3 2 2 2 2 2 1 2 2 2 2 2 2 2 1
10 10 9 9 8 8 9 7 6 6 6 6 6 5 4 5 5 5 5 6 5 5 4 4 4 4 4 3 3 3 2 2 3 1 1 2 2 2 3 2 3 2
11 11 10 10 9 8 7 6 6 5 5 5 6 6 5 4 5 5 5 5 5 5 4 4 4 4 4 4 3 3 2 3 2 1 2 2 2 3 3 3 3 3
12 11 10 9 8 7 6 6 7 6 7 6 6 5 5 5 5 5 5 5 5 5 4 5 5 5 4 4 3 3 2 3 2 2 2 3 3 3 3 3 4 4
9 9 9 8 7 7 7 7 7 7 7 7 7 5 6 6 5 6 6 6 6 6 5 5 5 5 5 4 3 3 3 4 2 3 4 4 4 3 3 3 4 4
11 10 10 8 9 8 8 7 7 7 7 7 5 6 5 6 6 6 6 6 6 5 5 4 4 4 4 4 4 4 4 4 4 4 4 4 4 5 5 4 4 5
12 10 10 8 9 8 9 8 7 7 7 6 7 6 6 7 7 6 6 6 6 6 5 5 4 5 5 4 5 5 6 5 5 5 6 6 5 6 5 4 4 5
10 10 9 10 11 9 10 10 8 8 7 7 7 6 6 6 6 7 6 6 6 5 5 5 5 5 5 5 5 6 6 6 5 5 6 6 6 6 5 4 5 5
9 9 10 11 12 10 11 11 9 8 7 8 7 7 6 6 6 6 5 5 6 6 6 6 5 5 5 5 6 7 7 7 7 6 6 7 7 6 6 5 5 5
9 9 10 11 11 10 11 11 10 8 7 8 7 7 7 6 5 5 5 6 6 7 7 6 6 6 6 6 6 6 7 7 7 7 7 7 7 7 6 6 6 6
9 9 10 11 11 10 10 9 9 9 7 6 7 8 7 7 7 6 6 6 7 7 7 7 6 6 6 7 7 7 7 7 8 8 8 8 7 7 7 7 7 7
10 10 10 10 9 8 8 7 8 8 8 8 7 7 7 7 7 7 6 6 6 7 7 7 7 7 6 7 7 7 7 8 8 8 8 7 8 8 8 8 8 7
8 8 8 8 6 5 5 6 7 7 7 6 6 7 8 8 8 8 7 7 7 7 7 7 7 7 7 7 7 7 7 8 8 9 9 9 9 8 9 8 8 8
8 9 9 5 4 4 4 5 5 5 5 6 7 8 8 8 8 8 8 8 8 7 7 7 7 7 7 7 7 8 8 9 9 9 9 9 9 9 8 8 8 8
8 6 6 6 6 5 4 4 4 3 4 5 6 7 7 6 7 7 8 9 8 8 7 7 7 6 7 9 8 7 8 8 8 8 8 8 8 8 9 9 10 9
2 2 6 6 7 7 5 4 2 2 2 2 3 4 5 5 6 8 8 8 9 9 8 8 7 7 8 11 12 13 9 8 8 8 8 8 9 9 9 10 9 9
3 2 3 4 6 6 6 4 4 3 1 2 3 3 3 4 6 7 7 8 7 9 9 9 8 6 9 10 11 12 11 9 9 8 8 8 8 9 8 8 9 8
4 6 5 4 4 5 4 3 3 4 5 4 5 5 3 4 5 6 7 6 7 7 8 9 9 5 7 9 10 11 11 10 9 9 9 9 8 8 9 8 7 7
3 4 6 5 5 6 6 5 6 5 5 6 6 6 5 5 6 6 5 5 5 6 7 9 10 6 4 7 9 11 11 9 9 10 10 10 9 9 8 8 7 6
8 8 7 6 4 3 4 4 5 5 5 5 5 6 6 6 5 5 4 5 5 4 5 8 10 3 3 4 5 6 6 6 8 9 9 9 9 9 8 8 7 7
8 7 6 5 4 4 4 5 5 5 5 4 4 3 1 3 5 5 6 5 3 3 4 5 3 7 4 4 3 4 1 4 6 7 8 8 7 7 6 5 6 6
6 6 6 6 5 5 4 4 3 3 3 3 5 5 4 3 1 4 6 6 5 4 4 4 3 11 13 8 3 3 4 3 3 4 4 5 5 4 4 4 4 4
6 6 6 5 5 5 6 6 4 3 4 3 2 3 4 3 2 3 4 2 2 1 3 3 0 9 9 4 3 3 4 3 2 2 2 2 2 2 2 2 1 2
6 6 5 5 5 5 5 4 4 3 1 1 2 2 1 1 2 2 2 3 3 5 10 8 7 7 12 10 3 2 2 3 4 4 5 5 5 4 3 2 1 2
6 7 6 6 6 6 6 5 4 4 4 1 2 2 3 4 3 2 4 7 8 9 10 10 9 8 10 11 9 5 3 1 1 3 4 3 3 3 3 2 1 3
Wind_Direction
191 191 195 196 203 207 204 204 210 210 213 219 219 212 213 211 210 214 222 226 229 235 225 227 225 228 228 226 231 237 255 273 291 226 263 281 291 281 264 249 225 256
193 193 191 197 196 197 204 210 206 211 209 213 222 217 210 207 207 215 220 223 224 231 231 226 225 225 232 231 223 240 255 251 261 221 255 255 273 282 266 262 270 307
195 194 195 200 204 203 212 207 210 213 218 221 218 218 210 204 209 205 217 221 226 235 222 225 223 224 228 226 226 235 233 239 265 294 266 271 277 274 280 280 260 252
200 200 203 206 207 203 205 203 204 210 218 213 219 216 214 206 200 202 207 212 225 228 233 227 231 230 225 223 225 243 240 248 260 273 258 248 250 267 271 269 271 263
205 203 204 205 205 200 199 206 215 207 214 220 223 209 201 200 206 206 202 205 216 227 218 222 224 229 222 222 224 248 244 254 219 222 244 254 244 242 258 267 275 278
205 205 203 202 196 194 201 207 209 212 212 213 219 214 211 199 208 209 205 207 211 218 221 219 218 222 221 213 224 246 258 261 236 223 249 259 267 260 269 272 278 277
207 206 207 206 206 200 205 203 205 209 213 220 207 214 207 200 199 203 205 211 218 216 225 218 222 227 218 213 217 224 231 241 247 235 248 258 257 268 270 269 277 283
209 205 204 202 208 203 210 207 208 204 207 207 212 208 207 206 202 202 206 212 219 219 222 227 226 225 234 228 228 226 232 228 229 231 239 251 260 264 263 267 272 279
207 206 201 201 207 210 214 215 209 208 200 207 217 213 202 212 205 208 198 206 220 220 219 230 227 234 230 228 232 233 236 242 242 236 240 247 247 248 253 257 261 266
203 209 211 209 211 213 215 218 216 207 197 207 211 218 206 202 211 209 199 201 218 220 224 231 228 231 229 225 227 232 237 237 238 237 242 247 249 253 253 246 252 257
205 208 212 214 218 220 218 219 221 217 203 209 212 217 214 206 200 208 207 207 221 223 227 228 232 231 231 235 231 231 235 242 242 237 239 241 246 249 252 254 252 254
202 206 214 218 219 222 223 222 222 222 214 205 216 218 212 218 213 213 213 212 219 226 228 231 232 232 232 238 240 237 234 241 242 242 241 239 241 242 243 245 250 252
206 207 212 216 216 219 218 217 222 227 226 223 214 220 220 226 222 220 213 224 222 228 232 229 231 235 234 236 243 245 244 245 250 248 246 243 243 243 244 242 243 245
219 216 221 222 216 207 215 220 227 230 230 228 222 221 228 233 237 232 225 228 232 233 233 232 231 235 232 236 242 248 248 247 248 253 254 252 250 246 246 247 244 245
215 216 210 194 190 195 205 217 223 227 225 229 228 233 236 237 239 244 245 243 241 239 241 239 239 235 235 230 232 235 242 248 247 246 248 252 255 256 251 247 249 252
204 188 173 181 192 191 193 189 207 216 235 236 238 236 237 237 242 242 246 248 247 239 238 242 240 239 224 220 229 242 239 245 245 246 248 249 251 255 257 253 251 251
213 170 160 152 164 167 170 170 151 181 192 213 239 250 257 251 240 241 244 246 247 248 243 241 243 240 216 213 221 231 244 248 246 244 241 240 241 245 254 259 258 251
145 222 219 173 160 163 162 139 144 151 211 238 235 228 224 245 248 241 242 245 247 250 250 250 253 238 215 219 223 228 230 244 251 251 246 240 239 240 244 251 255 256
177 188 223 218 186 172 167 176 183 178 177 194 224 230 227 222 236 248 244 243 246 250 256 258 262 241 218 227 230 233 232 236 255 256 255 251 248 242 243 245 248 254
160 188 201 206 188 166 169 179 181 198 204 189 194 202 215 221 223 225 235 242 253 257 261 263 262 265 222 230 237 235 233 222 248 254 255 257 255 252 252 252 251 255
51 44 42 42 58 104 142 162 172 170 177 193 206 218 218 224 230 233 232 238 239 244 263 277 268 241 214 285 304 286 278 239 251 253 255 255 252 251 253 257 261 262
74 73 57 45 44 44 50 58 56 69 83 81 110 118 128 198 231 239 241 240 227 239 232 223 251 62 14 0 358 351 225 234 238 242 251 255 258 259 260 262 261 261
49 58 61 50 36 29 41 51 53 49 44 51 88 88 102 81 63 224 226 233 228 218 246 272 273 47 22 1 329 284 244 259 255 253 251 256 262 276 274 272 270 274
46 51 56 45 40 44 21 13 23 44 46 12 65 113 122 141 104 78 63 48 49 269 238 270 121 39 14 337 289 305 305 285 285 272 266 261 268 262 268 259 302 321
52 54 57 61 48 41 45 41 11 12 36 57 44 11 41 154 134 100 84 69 55 41 52 64 67 40 14 349 343 317 313 281 277 269 261 260 264 258 247 251 208 121
56 57 52 45 48 56 50 37 16 19 2 9 69 35 359 353 351 26 67 54 46 47 48 61 67 42 19 22 19 22 345 301 260 272 281 299 298 295 275 229 233 136